[[{"header":{"parameterUnit":"m.s-1","parameterCategory":1,"la1":30.2991,"la2":30.254,"lo1":-89.0895,"lo2":-89.0444,"dy":0.0017,"dx":0.0017,"nx":28,"ny":28,"refTime":"2025-08-05T21:00:00:Z","depth":0,"parameterNumber":2,"parameterNumberName":"U-component_of_WINDS"},"data":[0,0,0,0,0,0,0,0,0,0,0,0,0,0,0,0,0,0,0,0,0,0,0,0,0,0,0,0,0,0,0,0,0,0,0,0,0,0,0,0,0,0,0,0,0,0,0,0,0,0,0,0,0,0,0,0,0,0,-1.069,-1.069,0,-1.0644,-1.0644,-1.0643,-1.0644,-1.0644,-1.0645,-1.0646,-1.0595,-1.0593,-1.0591,0,0,0,0,0,0,0,0,0,0,0,0,0,-1.0777,-1.0776,-1.069,-1.069,-1.0689,-1.0644,-1.0644,-1.0643,-1.0644,-1.0644,-1.0645,-1.0646,-1.0596,-1.0594,-1.0591,0,0,0,0,0,0,0,0,0,0,0,0,0,-1.0736,-1.0775,-1.0691,-1.0684,-1.0683,-1.0644,-1.0643,-1.0643,-1.0643,-1.0644,-1.0645,-1.0646,-1.0597,-1.0594,-1.0591,-1.0554,0,0,-1.0582,-1.0581,0,0,0,0,0,0,0,0,-1.0738,-1.0733,-1.0686,-1.0685,-1.0683,-1.0651,-1.0656,-1.0613,-1.0643,-1.0658,-1.0646,-1.0647,-1.0613,-1.0609,-1.0598,-1.0552,-1.055,-1.0582,-1.058,-1.0579,-1.0578,0,0,0,0,0,0,0,-1.0741,-1.0735,-1.0672,-1.0685,-1.0684,-1.0683,-1.0678,-1.0648,-1.0631,-1.0657,-1.0657,-1.0652,-1.0612,-1.06,-1.0596,-1.0549,-1.0582,-1.0579,-1.0578,-1.0576,-1.047,-1.0469,0,0,0,0,0,0,-1.0746,-1.0737,-1.0674,-1.0671,-1.0714,-1.0681,-1.0675,-1.066,-1.0631,-1.0628,-1.0651,-1.0652,-1.0605,-1.06,-1.0595,-1.0549,-1.0579,-1.0576,-1.0574,-1.0471,-1.047,-1.0469,0,0,0,0,0,0,-1.0748,-1.074,-1.0675,-1.0704,-1.0696,-1.0678,-1.0661,-1.0659,-1.0647,-1.0627,-1.0623,-1.0642,-1.0605,-1.0599,-1.0564,-1.0547,-1.0575,-1.0572,-1.0472,-1.0471,-1.0469,-1.0458,0,0,0,0,0,0,-1.075,-1.0741,-1.0727,-1.0704,-1.0694,-1.0646,-1.066,-1.0657,-1.0642,-1.0643,-1.0617,-1.0614,-1.0606,-1.0569,-1.0561,-1.0544,-1.057,-1.0474,-1.0472,-1.047,-1.0459,-1.0456,-1.0453,0,0,0,0,0,-1.0753,-1.0725,-1.0726,-1.0719,-1.0677,-1.0645,-1.064,-1.0632,-1.0641,-1.0627,-1.0614,-1.0615,-1.0551,-1.0565,-1.0557,-1.0538,-1.0475,-1.0472,-1.047,-1.0461,-1.0456,-1.0453,0,0,0,0,0,0,-1.0746,-1.0722,-1.0723,-1.0687,-1.0668,-1.0646,-1.0627,-1.0627,-1.0605,-1.0607,-1.0597,-1.0591,-1.0556,-1.0544,-1.056,-1.0501,-1.0514,-1.051,-1.051,-1.0505,-1.0502,-1.0505,-1.0568,0,0,0,0,0,-1.074,-1.0718,-1.0698,-1.0668,-1.0658,-1.0645,-1.063,-1.0626,-1.0606,-1.0598,-1.0582,-1.0562,-1.0537,-1.0521,-1.0497,-1.0458,-1.0452,-1.0441,-1.0438,-1.0436,-1.0431,-1.0409,-1.0404,-1.046,-1.0461,-1.0461,0,0,-1.0728,-1.0712,-1.0698,-1.0666,-1.0651,-1.0627,-1.0638,-1.0612,-1.0593,-1.0594,-1.056,-1.0548,-1.0525,-1.0488,-1.0471,-1.0476,-1.0415,-1.0432,-1.043,-1.0427,-1.0406,-1.04,-1.0396,-1.0459,-1.0459,-1.0459,0,0,-1.0693,-1.0679,-1.0652,-1.0637,-1.0615,-1.0606,-1.06,-1.0577,-1.057,-1.0536,-1.0536,-1.0513,-1.0471,-1.0455,-1.044,-1.04,-1.04,-1.0393,-1.0374,-1.0353,-1.0348,-1.0344,-1.0328,-1.0323,-1.0389,-1.0389,-1.0389,0,-1.068,-1.0644,-1.0638,-1.0612,-1.0597,-1.0598,-1.057,-1.0556,-1.0526,-1.0516,-1.0523,-1.047,-1.0455,-1.0413,-1.0404,-1.0393,-1.0384,-1.0394,-1.0349,-1.0345,-1.0341,-1.0326,-1.032,-1.0388,-1.0388,-1.0388,-1.0388,0,-1.0628,-1.0604,-1.0585,-1.0557,-1.0541,-1.0514,-1.0503,-1.0487,-1.0484,-1.0474,-1.044,-1.0421,-1.0394,-1.0384,-1.0381,-1.0342,-1.0346,-1.0352,-1.0364,-1.0335,-1.032,-1.0315,-1.0387,-1.0387,-1.0388,-1.0388,0,0,-1.0585,-1.0556,-1.0549,-1.0536,-1.0512,-1.0492,-1.0466,-1.0439,-1.0425,-1.0405,-1.0381,-1.0347,-1.0352,-1.0336,-1.0331,-1.0312,-1.028,-1.032,-1.0319,-1.0312,-1.0234,-1.0229,-1.0222,-1.028,-1.0279,-1.0278,-1.0236,0,-1.0546,-1.0499,-1.0493,-1.0451,-1.0427,-1.0428,-1.0404,-1.0387,-1.0377,-1.0355,-1.0344,-1.0319,-1.0329,-1.0319,-1.0301,-1.0288,-1.0264,-1.0291,-1.0256,-1.0255,-1.026,-1.0215,-1.0209,-1.0169,-1.023,-1.0229,-1.0228,0,-1.0494,-1.0473,-1.0429,-1.0408,-1.0398,-1.0377,-1.0352,-1.0332,-1.0312,-1.0306,-1.0289,-1.0286,-1.0258,-1.0273,-1.0232,-1.0251,-1.0237,-1.0229,-1.0227,-1.0221,-1.0238,-1.0206,-1.0156,-1.0149,-1.022,-1.022,-1.0221,0,-1.0464,-1.0426,-1.0394,-1.0384,-1.0359,-1.0344,-1.0333,-1.0314,-1.0299,-1.0277,-1.0267,-1.0242,-1.0228,-1.0209,-1.0199,-1.0212,-1.0159,-1.0174,-1.0152,-1.0152,-1.0139,-1.0139,-1.0084,-1.0133,-1.0133,-1.0134,-1.0134,0,-1.042,-1.0392,-1.0381,-1.0361,-1.033,-1.0324,-1.0292,-1.0282,-1.0265,-1.0243,-1.0242,-1.0221,-1.0211,-1.0188,-1.0181,-1.0148,-1.0142,-1.0135,-1.0133,-1.0134,-1.0134,-1.0123,-1.0124,-1.0132,-1.0132,-1.0133,-1.0133,0,-1.0381,-1.0373,-1.0338,-1.0318,-1.0312,-1.029,-1.0272,-1.0253,-1.0244,-1.0216,-1.0209,-1.0194,-1.0167,-1.0157,-1.0124,-1.0119,-1.008,-1.0081,-1.0087,-1.0086,-1.0063,-1.0065,-0.9997,-0.9987,-1.0045,-1.0044,-1.0044,0,-1.0352,-1.0331,-1.0309,-1.0295,-1.0283,-1.026,-1.0244,-1.0238,-1.0222,-1.0198,-1.018,-1.0154,-1.0132,-1.0088,-1.0074,-1.0049,-1.0048,-1.0026,-1.0044,-1.0045,-1.0045,-1.0046,-1.0043,-1.0022,-1.0021,-1.0021,-1.0021,0,-1.0301,-1.0298,-1.0277,-1.0253,-1.0235,-1.0216,-1.0198,-1.0186,-1.0177,-1.0158,-1.0131,-1.0114,-1.0081,-1.0054,-1.0028,-1.0015,-1.0015,-1.0016,-1.0009,-1.0008,-1.0011,-1.0007,-1.0075,-1.0016,-1.0017,-1.0017,-1.0017,-1.0017,-1.0265,-1.0246,-1.0228,-1.0203,-1.0189,-1.0172,-1.0153,-1.0142,-1.012,-1.0092,-1.009,-1.0061,-1.0041,-1.0006,-0.9993,-0.9969,-0.9975,-0.9965,-0.9962,-0.996,-0.9957,-1.0017,-0.9964,-0.9965,-0.9965,-0.9965,-0.9965,0,-1.0212,-1.0201,-1.0179,-1.0154,-1.0135,-1.0139,-1.0119,-1.0102,-1.0076,-1.0059,-1.0038,-1.0006,-0.998,-0.9965,-0.9938,-0.9922,-0.9921,-0.9915,-0.9915,-0.9912,-0.9954,-0.9962,-0.9916,-0.9916,-0.9916,-0.9916,-0.9916,-0.9916,-1.0183,-1.015,-1.0145,-1.0106,-1.0094,-1.0066,-1.0054,-1.0038,-1.0024,-0.9989,-0.9968,-0.9959,-0.9941,-0.9914,-0.989,-0.9886,-0.9875,-0.9868,-0.9865,-0.9904,-0.9909,-0.9914,-0.9921,-0.9867,-0.9867,-0.9824,-0.9823,-0.9823]},{"header":{"parameterUnit":"m.s-1","parameterCategory":1,"la1":30.2991,"la2":30.254,"lo1":-89.0895,"lo2":-89.0444,"dy":0.0017,"dx":0.0017,"nx":28,"ny":28,"refTime":"2025-08-05T21:00:00:Z","depth":0,"parameterNumber":3,"parameterNumberName":"V-component_of_WINDS"},"data":[0,0,0,0,0,0,0,0,0,0,0,0,0,0,0,0,0,0,0,0,0,0,0,0,0,0,0,0,0,0,0,0,0,0,0,0,0,0,0,0,0,0,0,0,0,0,0,0,0,0,0,0,0,0,0,0,0,0,-0.2417,-0.2418,0,-0.2452,-0.2453,-0.2453,-0.2463,-0.2463,-0.2463,-0.2463,-0.2498,-0.2499,-0.25,0,0,0,0,0,0,0,0,0,0,0,0,0,-0.2357,-0.2358,-0.2417,-0.2418,-0.2418,-0.2452,-0.2453,-0.2453,-0.2463,-0.2463,-0.2463,-0.2463,-0.2498,-0.2499,-0.25,0,0,0,0,0,0,0,0,0,0,0,0,0,-0.2387,-0.2359,-0.2417,-0.2427,-0.2428,-0.2452,-0.2453,-0.2453,-0.2463,-0.2463,-0.2463,-0.2463,-0.2497,-0.2499,-0.25,-0.2516,0,0,-0.2506,-0.2506,0,0,0,0,0,0,0,0,-0.2385,-0.2389,-0.2425,-0.2427,-0.2428,-0.2453,-0.2445,-0.2474,-0.2463,-0.245,-0.2463,-0.2462,-0.2483,-0.2486,-0.2493,-0.2518,-0.2519,-0.2506,-0.2507,-0.2507,-0.2508,0,0,0,0,0,0,0,-0.2383,-0.2388,-0.2431,-0.2426,-0.2427,-0.2429,-0.2433,-0.245,-0.2468,-0.2451,-0.2452,-0.2456,-0.2484,-0.2492,-0.2494,-0.252,-0.2506,-0.2507,-0.2508,-0.2509,-0.2558,-0.2559,0,0,0,0,0,0,-0.238,-0.2386,-0.243,-0.2432,-0.2406,-0.2431,-0.2435,-0.2445,-0.2468,-0.2471,-0.2456,-0.2456,-0.2489,-0.2492,-0.2495,-0.2515,-0.2507,-0.2509,-0.251,-0.2558,-0.2558,-0.2559,0,0,0,0,0,0,-0.2378,-0.2383,-0.2428,-0.2409,-0.2415,-0.2432,-0.2443,-0.2446,-0.2454,-0.2471,-0.2475,-0.2461,-0.2489,-0.2493,-0.2511,-0.2516,-0.251,-0.2511,-0.2558,-0.2558,-0.2559,-0.2555,0,0,0,0,0,0,-0.2376,-0.2383,-0.239,-0.2409,-0.2416,-0.2444,-0.2444,-0.2447,-0.2457,-0.2457,-0.2477,-0.248,-0.2489,-0.2508,-0.2513,-0.2519,-0.2513,-0.2557,-0.2558,-0.2559,-0.2555,-0.2555,-0.2556,0,0,0,0,0,-0.2374,-0.2387,-0.239,-0.2395,-0.2425,-0.2444,-0.2448,-0.2459,-0.2457,-0.2464,-0.2475,-0.2479,-0.2515,-0.251,-0.2515,-0.2522,-0.2557,-0.2558,-0.2558,-0.2554,-0.2555,-0.2556,0,0,0,0,0,0,-0.2368,-0.239,-0.2393,-0.2413,-0.2427,-0.2446,-0.2455,-0.2459,-0.2473,-0.2473,-0.2485,-0.249,-0.2507,-0.2516,-0.251,-0.2538,-0.2536,-0.2538,-0.2531,-0.2532,-0.2533,-0.253,-0.2514,0,0,0,0,0,-0.2369,-0.2383,-0.2401,-0.2417,-0.2423,-0.2438,-0.2447,-0.2453,-0.2468,-0.2474,-0.2486,-0.25,-0.2514,-0.2524,-0.2538,-0.2555,-0.256,-0.2562,-0.2563,-0.2563,-0.2565,-0.2574,-0.2576,-0.2561,-0.2561,-0.2561,0,0,-0.2371,-0.2384,-0.2393,-0.2416,-0.2427,-0.2441,-0.2443,-0.2458,-0.2468,-0.2476,-0.2494,-0.2503,-0.2519,-0.2537,-0.2545,-0.2545,-0.2569,-0.2564,-0.2564,-0.2566,-0.2575,-0.2576,-0.2578,-0.2562,-0.2562,-0.2562,0,0,-0.2381,-0.2393,-0.2407,-0.2419,-0.2436,-0.2445,-0.2448,-0.2467,-0.2473,-0.2491,-0.2497,-0.2509,-0.2534,-0.2545,-0.2553,-0.2567,-0.2571,-0.2571,-0.2574,-0.2583,-0.2584,-0.2585,-0.259,-0.2591,-0.2572,-0.2572,-0.2572,0,-0.2382,-0.2404,-0.2414,-0.2429,-0.2438,-0.2446,-0.246,-0.247,-0.2491,-0.2497,-0.2496,-0.2526,-0.2538,-0.2558,-0.2561,-0.2568,-0.2571,-0.2569,-0.2583,-0.2584,-0.2585,-0.259,-0.2592,-0.2572,-0.2572,-0.2572,-0.2572,0,-0.2403,-0.2418,-0.2427,-0.2447,-0.2457,-0.2471,-0.2483,-0.2493,-0.2498,-0.2507,-0.2524,-0.2538,-0.2555,-0.256,-0.2565,-0.258,-0.258,-0.2581,-0.258,-0.2586,-0.2591,-0.2593,-0.2572,-0.2572,-0.2572,-0.2572,0,0,-0.2412,-0.2437,-0.244,-0.2449,-0.2467,-0.2479,-0.2492,-0.2509,-0.2516,-0.253,-0.2542,-0.2561,-0.2562,-0.2572,-0.2579,-0.2586,-0.2596,-0.2587,-0.2587,-0.2588,-0.2613,-0.2612,-0.2614,-0.2598,-0.2598,-0.2599,-0.2611,0,-0.2426,-0.2451,-0.246,-0.2481,-0.2495,-0.2501,-0.2513,-0.2525,-0.2534,-0.2546,-0.2555,-0.2569,-0.2569,-0.2575,-0.2583,-0.2593,-0.2601,-0.2592,-0.2609,-0.2609,-0.2605,-0.2616,-0.2616,-0.2627,-0.2613,-0.2613,-0.2614,0,-0.2445,-0.2459,-0.2481,-0.2497,-0.2503,-0.2514,-0.2529,-0.2541,-0.2554,-0.256,-0.257,-0.2576,-0.259,-0.2587,-0.2606,-0.2599,-0.2607,-0.2612,-0.2613,-0.2616,-0.2612,-0.2619,-0.2631,-0.2633,-0.2616,-0.2616,-0.2616,0,-0.245,-0.2474,-0.249,-0.2497,-0.2516,-0.2523,-0.2532,-0.2545,-0.2554,-0.2567,-0.2572,-0.2587,-0.2595,-0.2605,-0.2614,-0.2611,-0.2632,-0.263,-0.2637,-0.2637,-0.2642,-0.2642,-0.2655,-0.2646,-0.2645,-0.2645,-0.2645,0,-0.2464,-0.2478,-0.2492,-0.2502,-0.2517,-0.2527,-0.2541,-0.2549,-0.2561,-0.2572,-0.2578,-0.2589,-0.26,-0.2611,-0.2618,-0.2633,-0.2636,-0.264,-0.2642,-0.264,-0.264,-0.2646,-0.2645,-0.2646,-0.2646,-0.2646,-0.2646,0,-0.2472,-0.2483,-0.2501,-0.2517,-0.2521,-0.2531,-0.2545,-0.2555,-0.2563,-0.2577,-0.2581,-0.2593,-0.2607,-0.2617,-0.2634,-0.2639,-0.2655,-0.2656,-0.265,-0.2651,-0.2657,-0.2657,-0.2676,-0.2679,-0.2667,-0.2667,-0.2667,0,-0.2481,-0.2492,-0.2509,-0.2517,-0.2525,-0.2538,-0.2547,-0.2556,-0.2565,-0.2581,-0.2588,-0.2602,-0.2614,-0.2636,-0.2646,-0.2659,-0.2662,-0.2667,-0.2664,-0.2661,-0.2662,-0.2661,-0.2662,-0.2668,-0.2668,-0.2668,-0.2668,0,-0.2496,-0.25,-0.2513,-0.2527,-0.2538,-0.2549,-0.2561,-0.2567,-0.2578,-0.2588,-0.2602,-0.2611,-0.2629,-0.2643,-0.2657,-0.2664,-0.2668,-0.2669,-0.2671,-0.267,-0.2666,-0.2668,-0.2652,-0.2669,-0.2669,-0.2669,-0.2669,-0.2669,-0.2505,-0.2514,-0.2528,-0.2541,-0.2551,-0.2561,-0.2571,-0.258,-0.2592,-0.2607,-0.2611,-0.2626,-0.2638,-0.2657,-0.2665,-0.2676,-0.2676,-0.2679,-0.268,-0.2681,-0.2681,-0.2664,-0.2679,-0.2679,-0.2679,-0.2679,-0.2679,0,-0.252,-0.2529,-0.2541,-0.2557,-0.2568,-0.257,-0.2582,-0.2591,-0.2604,-0.2615,-0.2626,-0.2642,-0.2655,-0.2665,-0.2679,-0.2686,-0.2687,-0.2689,-0.2689,-0.269,-0.268,-0.2677,-0.2687,-0.2687,-0.2687,-0.2687,-0.2687,-0.2687,-0.253,-0.2545,-0.2551,-0.2571,-0.2579,-0.2593,-0.26,-0.261,-0.2618,-0.2636,-0.2647,-0.2653,-0.2664,-0.2678,-0.269,-0.2692,-0.2697,-0.2698,-0.2701,-0.2692,-0.2691,-0.269,-0.2687,-0.2699,-0.2699,-0.271,-0.271,-0.271]}]]